Погода в Уюке

Погода в Уюке : погода сейчас, прогноз погоды и архив. Всё, что Вы хотите узнать о погоде в Уюке!

Поиск расширенной информации на нашем сайте:

Другие новости

Новости СМИ2

Главная страница сайта

Новости сайта

03.07.2017

Напоминаем, что на нашем специализированном сайте Метеоцентр.Азия вы можете получить высокодетализированные автоматические прогнозы погоды по пунктам России, СНГ и мира в авиационном формате (включающие направление и скорость ветра, видимость, явления погоды, количество и форму облачности, нижнюю и верхнюю границу облачности).


Погода в Уюке - сегодня

Время (UTC), дата Ветер
(°,м/с) 
Видим.   Явления Облачность Т
(°С)
Тd
(°С)
f(%) Тe
(°С)
Pmin
(гПа)
dP
(гПа)
Po
(мм)
O2
(г/м3)
Тmin Tmax R s Состояние
почвы
06 16.10.17 160 (Ю) 20000 м    10/0 верхняя 
[Cs]
+17.9 +6.1 46 +19  1012.8  0.4  727  274           
09 16.10.17 150 (ЮВ) 20000 м    8/4 1000 м средняя, верхняя 
[Sc|Ac lent|Ci sp]
+22.2 +7.7 39 +22  1011.3  -0.8  727  269           
12 16.10.17 160 (Ю) 20000 м    8/8 1000 м 
[Sc]
+21.8 +7.6 40 +22  1012  0.6  727  270           
15 16.10.17 090 (В) 20000 м    9/0 средняя 
[Ac und]
+14.9 +9.5 70 +17  1014.4  1.4  728  276    +22.4       
18 16.10.17 130 (ЮВ) 20000 м    8/0 средняя 
[Ac trans]
+12.9 +8.2 73 +13  1014.4  -0.4  728  279    +22.4       
21 16.10.17 160 (Ю) 20000 м    6/0 средняя 
[Ac trans]
+10.2 +6.1 76 +11  1014.3  -0.5  727  281           
00 17.10.17 150 (ЮВ) 20000 м    3/0 верхняя 
[Ci sp]
+10.1 +6.5 78 +11  1013.6  -0.7  727  281           
06 17.10.17 120 (ЮВ) 20000 м    4/0 верхняя 
[Ci sp]
+23 +8.8 40 +23  1010.9  -0.5  726  268           
09 17.10.17 140 (ЮВ) 20000 м    6/0 верхняя 
[Ci sp]
+25.7 +4.5 26 +26  1008.2  -2.1  725  266           
12 17.10.17 070 (В) 20000 м    9/0 верхняя 
[Ci sp]
+24.4 +4.6 28 +24  1007.4  -1.1  724  267           
15 17.10.17 090 (В) 20000 м    6/0 верхняя 
[Ci sp]
+17.6 +4.3 41 +18  1007.3  -0.9  723  273    +25.9       
18 17.10.17 120 (ЮВ) 20000 м    3/0 верхняя 
[Ci sp]
+15 +5.6 53 +15  1005.1  -2.6  721  275    +25.9       
21 17.10.17 100 (В) 20000 м    10/0 средняя 
[Ac As]
+12.6 +6.2 65 +12  1004  -1.3  720  276           
06 18.10.17 230 (ЮЗ) 13-22  20000 м    9/9 1000 м 
[Sc]
+10.6 +5.3 70 +8  1019.2  6.9  731  283           
09 18.10.17 260 (З) 7{10}  20000 м    9/4 1000 м средняя, верхняя 
[Sc|Ac lent|Ci sp]
+12.9 +2.1 48 +12  1020.1  1.1  732  281           
12 18.10.17 240 (ЮЗ) 20000 м    10/10 600 м 
[Sc]
+11 +4.8 66 +10  1021  0.6  732  283           
15 18.10.17 170 (Ю) 20000 м    8/8 1000 м 
[Sc]
+8.7 +4.1 73 +8  1023.2  1.8  734  286    +12.9       
18 18.10.17 200 (Ю) 20000 м    10/10 600 м 
[Sc]
+8 +4.1 76 +7  1023.5  0.1  734  287    +12.9       
21 18.10.17 190 (Ю) 20000 м    3/0 средняя 
[Ac trans]
+7.1 +3.2 76 +5  1024.2  0.5  734  288           
00 19.10.17 220 (ЮЗ) 20000 м    10/10 600 м 
[Sc]
+7 +4 81 +7  1025.1  0.8  735  288           
06 19.10.17 240 (ЮЗ) 20000 м    9/4 600 м средняя 
[Sc|Ac lent]
+10.3 +6.7 78 +9  1027  1.1  737  285           
09 19.10.17 270 (З) 20000 м    10/10 600 м 
[Sc]
+12.4 +6.1 65 +11  1026.1  -0.6  736  283           
12 19.10.17 230 (ЮЗ) 20000 м    10/0 средняя 
[Ac As]
+12.8 +5 59 +11  1026.9  737  283           
15 19.10.17 280 (З) 20000 м    10/0 средняя 
[Ac As]
+11 +4.6 65 +10  1028.4  1.1  738  285    +12.8       
18 19.10.17 тихо ()   20000 м    10/10 600 м 
[Sc]
+9.8 +4.1 68 +10  1028.9  0.3  738  286    +12.8       
Время (UTC), дата Ветер
(°,м/с) 
Видим.   Явления Облачность Т
(°С)
Тd
(°С)
f(%) Тe
(°С)
Pmin
(гПа)
dP
(гПа)
Po
(мм)
O2
(г/м3)
Тmin Tmax R s Состояние
почвы

Для получения пояснительной информации подведите курсор к названию столбца.

ПОГОДА в Уюке - архив

Всё, что Вы хотите узнать о погоде в Уюке - удобно и подробно!

Выберите нужную дату (начиная с 1 января 2015* года) и нажмите кнопку "Найти".
Будут отображены архивные сводки погоды по пункту Уюк, начиная с указанной даты.


Отображать данные в формате CSV (для использования в таблицах Excel)


Внимание! Наш архив погоды предназначен исключительно для личного некоммерческого использования в познавательных целях. Если Вам необходимы официальные справки о состоянии погоды (для производственных, юридических, коммерческих и т.п. целей), обращайтесь в органы Росгидромета.

*Примечание: данная дата относится к архиву по метеостанциям СССР (Россия, СНГ, Балтия).
Архив по метеостанциям Зарубежной Европы и Азии (кроме Китая) хранится 10 дней, по другим регионам земного шара (Китай, Африка, Америка, Австралия, Океания) - 1 день.

Уюк - район местоположения метеостанции


Название, широта, долгота, высота метеостанции:
Уюк 43.8°ш. 70.9°д. 366 м над ур. моря [Казахстан]

Дополнительная информация

В oтличие oт бoльшинства пoгoдных сайтoв мы публикуем пoдрoбную метеoинфoрмацию в детальнoм прoфессиoнальнoм фoрмате.

Характеристики температуры и влажнoсти вoздуха измеряются на высoте 2 м в тени вдали oт зданий и деревьев.
Скoрoсть ветра измеряется на высoте 10 м (на урoвне рoста челoвека скoрoсть ветра ниже в 1.5-2 раза). Если метеoстанция нахoдится в гoрoде или в лесу, тo скoрoсть ветра занижена на 2-4 м/с пo сравнению с oткрытым местoм. Скoрoсть ветра над акватoриями крупных рек и oзёр, а также на вершинах хoлмoв на 2-5 м/с выше, чем в oбычных услoвиях.
Атмoсфернoе давление в разных тoчках местнoсти мoжет значительнo oтличаться oт давления на метеoстанции, в зависимoсти oт услoвий рельефа (при пoдъёме на 10 м давление пoнижается примернo на 1 мм рт.ст.).